FENGYUN 1C DEB

Satellite information

Favourite Embed

Satellite Type and Status

DEBRISIN ORBIT

Key statistics

Satellite FENGYUN 1C DEB at a glance.

Uptime

9666

Days in orbit

Revolutions

≈ 14.1

Per day

Orbit

SSO

Sun Synchronous Orbit

Inclination

99.3

Latest

Satellite identification and parameters

Extended collection of information and parameters for FENGYUN 1C DEB.

Object identification

Identified? True

Debris? True

Object name: FENGYUN 1C DEB

International designator: 1999-025ASL

Object number (NORAD): 30726

Object ID (CCSDS): 30726

Country: PEOPLES REPUBLIC OF CHINA (PRC)

Current information (Y/N): Y

RCS size: SMALL

Orbital parameters

Period: 102.199 minutes

Inclination: 99.2684 deg

SMA: 7240.902 km

Apoapsis: 919.903 km

Periapsis: 805.632 km

RAAN: 299.3383 deg

Eccentricy: 0.00789061

Argument of periapsis: 359.9801 deg

Mean anomaly: 57.6497 deg

Mean motion: 14.0900886 rev/day

Mean motion (dot): 0.0000279 rev/day2

B* drag term: 0.0015912276 1/REarth

Two-line elements (TLE)

Creation date: Oct. 26, 2025, 2:54 a.m.

Reference frame: TEME

Reference center: EARTH

Epoch: Oct. 25, 2025, 10:39 p.m. UTC

TLE line 0: 0 FENGYUN 1C DEB

TLE line 1: 1 30726U 99025ASL 25298.94436390 .00002790 00000-0 15912-2 0 9995

TLE line 2: 2 30726 99.2684 299.3383 0078906 359.9801 57.6497 14.09008860953102

Live tracking on map

Real-time ground track for satellite FENGYUN 1C DEB.

In-orbit conjunctions

A list of the most updated potential collisions computed for object FENGYUN 1C DEB.

Target Orbit TCA Probability of collision Miss distance Type
SL-3 DEB LEO 2025-08-28 18:50:37 0.0001228133 94.0 (m) DEBRIS
FENGYUN 1C DEB SSO 2024-11-12 07:27:29 0.0001349017 431.0 (m) DEBRIS
SL-14 DEB LEO 2024-09-29 19:41:54 0.0001048091 42.0 (m) DEBRIS

Associated space launch

Chinese polar orbiting meteorological satellite

FENGYUN 1C DEB was lifted into orbit during the mission ‘Long March 4B | Feng Yun 1C’, on board a Long March 4B space rocket.

The launch took place on May 10, 1999, 1:33 a.m. from Launch Complex 7.

For more information about the launch, click the button.

Launch to space Long March 4B | Feng Yun 1C
Long March 4B | Feng Yun 1C

Agency: N/A

Status: Launch Successful

Launch date: May 10, 1999, 1:33 a.m. UTC

Rocket: Long March 4B

Launch pad: Launch Complex 7

Location: Taiyuan Satellite Launch Center, People's Republic of China

...

Latest news about this satellite

There are no fresh news available about this satellite. Check back as we update our databases every day.


Newsletter sign-up

Weekly statistics, charts and insights to help you stay on top of the space industry.